Wind_Speed
15 14 13 14 16 18 19 22 25 27 30 31 32 33 32 32 31 30 31 32 34 37 40 43 45 43 39 35 32 31 30 32 35 39 42 45 49 53 56 58 59 60 59 57 52 49 50 54 58 63 65 66 65 66 66 67 66 65 61 57 53 49 46 43 42 44 46 49 51 53 54 56 57 58 59 62 64 64 63 62 61 60 59 58 57 56
14 13 13 14 16 17 19 21 24 27 29 31 32 32 32 31 31 30 30 32 34 36 38 41 43 44 41 37 34 32 31 31 33 36 40 44 48 52 56 58 59 60 60 58 53 49 49 52 56 61 64 64 64 65 66 66 66 66 64 61 57 53 49 45 43 42 43 44 45 47 50 54 55 55 56 59 62 62 61 60 59 59 58 58 57 57
14 13 13 14 15 16 18 20 23 26 28 30 31 31 31 30 30 30 31 33 34 35 35 38 41 43 42 39 36 33 32 32 32 35 39 43 48 52 56 58 60 61 61 59 54 48 47 51 55 59 62 63 64 64 65 66 66 66 65 62 59 56 51 46 44 43 43 44 44 45 48 51 53 54 55 58 60 61 60 59 59 58 58 57 57 57
16 15 13 13 14 16 18 19 22 25 28 29 30 30 30 30 30 30 31 33 35 35 34 35 39 42 43 40 38 35 32 31 32 34 38 42 47 51 56 59 60 61 61 59 54 48 47 50 54 57 60 62 63 63 64 65 65 65 64 62 59 57 53 48 44 43 44 45 45 45 47 51 54 56 56 57 59 59 59 59 58 58 57 57 56 56
17 16 14 13 14 15 17 19 21 24 27 28 29 29 29 29 29 29 30 33 36 36 35 34 36 40 42 42 40 37 34 31 31 34 38 41 45 50 55 58 60 61 62 60 54 48 46 49 52 56 59 61 62 63 63 63 63 62 61 60 58 56 53 49 45 44 45 46 46 45 45 48 53 57 57 57 57 58 58 58 58 58 57 56 55 54
18 17 15 14 14 15 16 18 21 24 26 27 28 28 28 28 28 28 30 33 36 37 36 33 33 36 40 42 42 40 37 35 34 35 38 41 44 49 54 58 60 62 62 60 54 49 46 48 51 54 57 60 62 62 62 61 61 60 59 58 57 55 52 48 46 44 44 45 46 44 43 44 48 52 54 55 56 57 56 56 56 56 56 55 55 53
19 17 16 15 14 15 16 17 20 23 25 26 27 27 27 27 26 27 29 33 37 38 36 32 31 32 35 39 41 41 40 39 38 38 39 40 43 48 53 58 61 63 63 60 55 50 47 48 50 52 55 58 61 61 60 59 59 58 57 56 55 53 50 47 44 42 42 43 45 46 44 43 44 46 49 52 54 55 54 54 54 54 54 55 54 53
20 18 17 16 15 14 15 17 19 22 24 25 25 25 25 25 26 27 29 33 37 38 36 32 29 29 31 34 36 38 39 39 39 39 39 40 43 47 52 57 61 63 64 61 56 51 48 47 48 51 53 57 59 60 59 58 57 56 55 54 53 51 48 45 42 39 38 40 43 46 47 46 45 45 46 48 50 51 52 53 53 53 53 54 54 54
21 19 18 16 15 15 15 16 18 20 22 23 23 24 24 24 25 26 28 32 37 39 37 33 29 28 29 30 32 34 35 35 35 36 36 38 41 46 51 56 61 64 65 62 57 52 49 46 47 49 52 55 58 59 59 57 56 54 54 54 52 50 47 43 40 36 35 36 40 44 47 48 48 47 47 48 48 49 50 52 53 53 53 53 54 55
21 20 19 17 15 15 15 15 17 19 21 22 22 22 22 23 23 24 27 32 37 40 39 34 30 28 28 29 30 31 31 31 31 31 33 36 39 44 50 56 61 65 65 62 57 51 47 45 46 48 51 54 56 58 58 57 55 54 53 53 53 51 47 44 40 36 34 34 36 39 42 44 46 47 47 48 48 49 50 51 53 53 54 53 54 55
20 20 19 18 16 15 15 16 17 18 20 20 21 21 21 21 21 23 26 31 37 41 41 37 31 27 26 26 27 29 30 30 29 29 31 33 37 42 48 55 61 65 66 63 57 50 45 44 45 47 49 52 55 56 57 56 55 54 53 54 54 52 49 46 42 39 36 35 34 35 36 38 40 42 44 47 48 50 50 51 52 53 54 53 53 55
20 19 19 18 16 15 15 15 16 18 19 19 19 19 20 20 21 23 26 31 35 39 42 38 32 27 24 23 24 26 29 30 29 29 30 32 35 39 45 53 60 66 67 63 58 50 44 42 43 45 47 51 53 55 56 56 54 53 54 54 54 54 52 49 46 43 40 38 35 34 33 33 34 36 38 42 45 48 50 51 52 53 54 53 53 54
19 19 19 18 17 16 15 15 15 17 18 19 19 19 19 20 21 22 26 29 34 38 41 39 33 27 24 22 22 24 27 29 29 28 29 31 33 37 42 50 59 66 68 65 59 51 43 40 40 43 46 49 51 53 55 55 54 53 53 54 55 55 54 52 50 47 44 41 39 37 35 34 32 32 34 37 40 44 47 50 51 53 54 54 54 54
18 18 18 18 17 16 15 15 15 16 18 19 19 18 18 19 20 21 24 28 33 37 39 37 33 28 25 24 23 25 27 28 28 26 26 28 31 36 41 49 58 66 69 67 61 52 44 38 37 40 44 47 49 51 53 54 53 53 53 54 55 55 55 53 52 50 46 43 41 40 39 37 35 34 33 34 37 40 44 48 51 54 55 56 56 56
18 18 18 18 17 16 15 14 15 16 17 18 18 18 17 18 19 21 23 27 32 36 37 35 32 29 27 26 26 27 28 27 26 25 24 25 29 35 40 49 59 67 70 68 62 53 44 36 34 37 42 45 47 49 50 52 53 52 52 53 54 54 54 54 52 50 47 44 41 40 40 39 38 36 35 35 35 38 41 46 51 55 57 58 59 59
17 17 17 17 16 15 15 14 14 15 17 18 18 18 18 19 20 21 23 26 30 33 34 33 32 30 28 28 28 28 28 27 27 27 27 26 29 34 41 48 58 66 69 69 62 52 43 36 33 35 40 44 46 47 48 51 52 52 51 52 52 53 53 52 51 50 47 44 41 40 39 39 38 38 37 36 35 36 39 44 51 57 60 61 61 60
17 17 17 17 16 15 14 13 14 15 17 18 19 19 20 20 20 21 23 25 27 30 32 33 32 31 29 28 27 28 29 29 30 30 30 29 30 34 41 47 57 64 65 69 64 53 42 35 32 34 39 43 45 45 46 48 50 51 50 50 50 51 51 51 50 48 46 43 41 40 39 38 38 38 37 37 36 37 39 43 50 56 60 61 61 60
16 16 16 16 16 15 14 13 14 16 18 19 20 20 20 20 20 21 22 24 26 28 30 32 32 31 29 28 28 29 30 32 33 32 30 29 31 35 40 46 54 61 67 69 65 55 44 35 32 33 39 43 44 44 44 45 46 48 48 48 48 49 49 49 48 46 45 43 42 41 39 38 38 38 38 38 38 38 40 44 50 54 57 57 56 55
15 15 16 16 16 15 14 13 14 16 18 20 21 21 21 21 21 21 22 24 27 28 29 30 31 31 29 27 27 29 31 33 32 30 28 27 30 35 40 45 50 56 61 65 65 58 47 36 31 32 38 42 44 43 42 42 44 45 46 46 47 48 48 48 47 47 45 44 43 41 40 39 39 38 38 39 39 41 43 47 51 55 56 54 51 49
15 15 15 16 16 15 14 13 14 16 19 21 21 22 22 22 22 23 23 25 26 27 28 29 30 30 28 26 25 26 30 31 30 28 26 25 28 34 39 44 46 49 56 63 66 62 50 37 30 29 35 41 44 43 42 42 42 43 45 46 47 48 49 49 48 47 45 44 42 41 40 39 39 39 39 40 42 43 45 49 52 55 57 56 52 49
15 14 15 15 16 15 14 13 14 16 19 21 22 22 23 23 23 23 23 24 25 26 27 28 29 29 28 26 25 25 27 29 28 26 25 24 26 32 39 43 46 48 52 61 67 65 55 40 29 27 33 41 44 43 42 42 42 43 45 47 48 50 50 49 48 46 44 42 41 39 39 39 39 40 41 42 43 45 48 50 52 54 56 56 54 51
15 14 14 15 15 15 14 13 14 16 19 21 22 23 23 24 24 24 23 23 25 26 27 29 29 29 27 27 26 26 26 27 28 27 26 23 24 30 38 43 45 46 48 56 64 67 60 44 30 26 31 40 45 44 43 42 42 43 45 47 49 51 51 49 48 46 44 43 41 39 37 38 39 41 43 42 43 45 48 50 51 52 53 54 54 52
15 14 13 14 14 14 14 14 14 17 19 21 23 24 24 25 25 25 24 24 25 27 28 29 29 28 27 27 27 26 25 26 27 27 26 24 25 30 36 41 43 43 44 51 60 65 62 48 32 26 32 41 45 45 44 42 41 41 44 47 49 50 50 49 49 48 47 45 43 40 38 37 38 40 42 42 42 42 44 45 46 48 50 51 52 51
14 13 13 13 13 14 14 14 15 17 20 22 23 23 24 25 26 25 24 23 24 26 26 26 26 27 27 28 27 25 24 24 25 25 26 25 26 29 33 36 40 42 43 49 56 62 62 49 34 28 34 42 45 45 44 42 41 41 44 47 49 49 49 49 49 50 49 48 45 42 40 38 38 39 40 40 40 40 39 39 40 41 44 47 49 50
13 13 12 13 13 13 13 14 15 17 20 22 23 24 24 25 26 25 24 23 23 24 25 26 27 28 29 29 28 26 24 24 25 25 26 25 25 26 29 32 36 39 43 48 54 59 61 52 37 30 36 42 45 45 44 43 42 43 44 46 47 48 48 48 48 49 49 49 47 44 42 40 39 38 38 38 38 37 36 35 35 37 41 45 47 49
12 12 12 12 13 13 13 14 15 17 20 22 23 24 24 25 27 27 25 24 23 24 26 28 29 30 31 31 30 27 25 24 25 25 25 25 24 24 25 28 30 33 40 47 53 57 58 53 39 31 37 43 45 44 44 44 43 43 43 43 45 46 47 47 47 47 47 47 45 44 43 42 40 39 38 37 37 35 34 33 33 35 39 44 46 47
11 11 11 12 12 13 13 14 16 18 20 22 23 24 24 25 27 28 27 26 25 26 26 28 29 30 31 31 31 28 25 23 23 24 23 24 23 23 23 25 26 30 36 44 50 55 58 52 40 34 38 43 45 43 44 44 44 43 42 42 43 45 47 47 47 47 46 45 44 43 42 41 41 40 39 37 36 35 34 33 33 34 37 42 44 44
10 10 10 11 12 13 14 15 16 18 20 22 23 24 24 25 27 28 28 26 25 26 26 26 27 29 31 32 31 29 26 24 23 23 22 23 24 23 21 22 25 29 31 39 46 51 55 52 43 38 41 43 44 44 43 44 44 44 43 43 43 44 46 47 47 47 47 46 44 43 42 41 40 40 39 38 37 36 35 34 34 35 37 39 41 42
9 9 10 11 12 13 14 15 17 19 21 22 23 23 24 25 27 28 28 26 24 25 26 26 27 28 31 33 32 30 27 25 23 23 22 23 24 24 20 19 21 25 26 32 38 45 50 51 45 40 42 44 45 44 43 44 45 45 45 45 44 44 44 45 46 46 46 46 45 44 43 42 41 40 40 39 38 37 37 36 36 36 37 38 39 41
9 9 10 11 12 13 14 16 18 20 21 22 23 23 24 24 25 27 27 26 25 24 26 26 27 27 29 30 31 29 28 26 24 23 23 24 25 24 21 19 19 21 24 27 32 39 47 50 45 41 42 45 46 46 44 44 45 46 46 46 45 44 43 43 44 44 44 44 43 43 43 43 42 42 41 41 40 39 38 37 37 37 37 37 38 40
8 8 9 11 12 13 14 16 18 20 21 22 22 23 23 24 24 25 26 27 26 25 26 25 25 26 27 29 29 29 28 27 25 25 24 25 27 26 23 22 22 22 24 28 32 38 45 49 46 41 42 46 48 47 46 45 44 45 46 46 47 46 44 44 44 43 42 41 41 41 42 42 42 42 42 42 41 40 39 38 37 37 36 36 37 38
7 7 9 11 12 13 14 16 18 20 21 22 22 23 23 23 24 24 25 27 26 26 25 24 24 24 26 28 29 30 29 27 26 26 26 27 28 28 25 25 24 24 25 29 34 39 45 48 45 40 41 46 49 49 48 46 44 43 43 45 48 48 47 46 45 44 43 41 40 40 41 41 41 41 41 41 41 41 40 39 38 37 36 35 35 35
6 7 9 11 12 13 14 16 17 19 20 21 22 22 23 24 24 24 24 25 26 26 26 24 24 24 25 26 27 28 28 27 26 26 27 28 29 29 27 26 26 25 25 28 33 38 44 47 43 38 39 45 49 50 49 47 45 43 42 45 48 50 49 48 47 47 46 44 42 42 42 42 42 42 41 41 41 41 41 40 39 37 36 34 33 33
7 7 9 10 12 13 14 15 17 18 20 21 21 22 23 24 23 23 23 24 25 26 27 26 25 24 24 24 24 26 27 27 26 26 27 29 31 31 30 29 27 27 26 27 31 35 40 43 41 36 35 41 47 50 51 49 46 44 43 45 49 52 52 51 50 50 50 48 47 46 46 46 46 45 45 44 44 43 43 42 40 38 36 35 33 33
7 8 9 10 11 12 13 15 17 18 19 20 21 22 23 23 23 22 22 23 25 26 27 27 25 24 24 24 25 26 27 27 27 27 28 30 32 33 32 31 30 28 27 27 29 33 37 40 40 36 33 37 43 49 51 49 47 44 44 46 49 52 54 54 54 54 54 54 53 52 50 49 49 49 49 48 47 46 46 44 43 41 38 36 35 34
7 8 9 10 11 12 13 15 16 18 19 19 20 21 22 23 22 21 21 22 24 26 27 26 24 23 23 24 25 26 27 27 27 27 28 30 33 34 34 33 31 29 28 27 28 31 35 37 38 37 34 33 38 46 50 50 47 44 44 46 48 51 52 54 55 56 56 57 57 56 54 52 51 51 51 51 50 49 48 47 45 43 41 39 37 36
6 7 8 9 10 11 13 15 16 17 18 19 19 20 21 22 22 21 21 22 23 25 27 25 23 22 23 24 25 25 25 25 26 27 28 30 32 34 34 34 32 30 28 28 28 29 32 34 35 34 32 31 34 41 48 49 46 44 44 45 46 47 48 50 54 56 57 58 59 59 57 55 54 53 52 52 51 50 49 48 47 45 44 41 39 38
5 6 8 8 9 11 12 14 16 17 18 18 19 20 20 21 21 21 20 21 22 24 25 25 23 22 22 23 24 24 24 24 25 26 28 30 31 33 34 34 33 32 30 29 28 29 30 32 33 33 32 30 31 37 45 48 47 45 44 43 43 43 44 46 50 54 56 57 58 59 59 58 56 55 53 53 52 51 50 49 48 48 46 45 43 41
4 5 6 7 8 9 11 13 15 16 17 18 18 19 19 20 20 20 20 21 21 23 24 24 23 22 22 23 25 25 25 25 26 27 28 29 31 33 34 35 35 34 32 31 29 29 30 32 33 33 33 30 29 31 39 46 48 46 44 42 40 39 41 43 46 48 51 54 56 58 59 58 58 56 55 54 53 52 51 51 50 49 48 47 46 45
4 4 4 4 5 7 9 12 13 15 16 17 18 18 19 19 20 20 20 20 21 21 23 24 24 23 22 23 24 24 24 24 25 27 28 29 30 32 33 34 35 36 35 33 32 30 30 30 32 32 32 31 28 27 32 42 47 48 44 41 37 35 37 41 43 44 47 50 53 56 58 59 58 58 57 56 55 54 53 52 51 50 49 49 48 47
5 4 3 2 3 5 7 10 12 14 15 16 17 18 18 19 20 20 20 20 20 20 21 23 23 23 22 22 21 21 20 21 23 25 27 28 29 31 32 33 34 36 36 36 34 32 31 30 30 31 31 31 29 27 28 36 44 48 46 41 37 34 35 39 41 43 44 47 50 52 55 58 59 59 58 57 56 55 54 52 51 50 50 49 48 47
7 6 4 3 2 4 6 9 11 13 14 15 16 17 18 19 20 20 21 20 20 20 21 22 23 23 22 21 19 18 18 19 21 24 26 27 28 30 31 31 33 35 36 36 36 34 32 30 30 30 31 31 30 28 26 30 37 41 42 40 37 34 34 37 40 42 44 46 47 48 50 55 58 59 59 58 57 56 54 52 50 50 49 48 47 47
9 8 6 4 3 3 5 7 10 11 13 14 15 16 17 18 20 20 20 19 19 19 20 22 23 23 23 21 19 18 17 19 20 22 23 25 26 28 30 31 32 33 35 36 35 34 32 30 29 29 30 30 30 29 27 27 29 31 32 36 37 34 32 36 39 42 44 45 45 44 44 49 54 58 59 58 57 56 53 51 50 49 48 48 47 46
10 9 8 6 4 2 3 6 8 10 12 13 14 15 17 18 19 20 19 18 18 18 19 21 22 22 21 21 21 19 18 18 19 20 20 22 24 26 29 30 31 32 34 35 34 33 31 30 29 29 29 29 29 28 27 26 26 27 29 33 36 36 34 36 39 42 43 43 43 42 39 41 48 55 57 57 56 54 52 50 49 49 48 48 47 46
12 11 10 8 5 3 2 4 7 9 11 13 14 15 17 18 19 19 18 17 17 17 19 20 20 20 20 20 21 21 20 19 20 20 20 20 22 25 27 28 30 31 32 34 34 33 32 31 30 29 29 29 28 28 28 27 26 26 28 32 36 38 37 36 38 41 42 42 42 41 38 36 41 50 54 55 54 52 50 49 48 48 47 47 46 46
13 12 11 9 7 4 2 3 6 9 11 13 14 16 17 18 18 18 17 16 16 17 19 20 20 20 20 20 21 22 23 22 22 22 22 22 22 24 26 27 29 30 32 34 34 33 32 32 31 31 30 30 30 30 29 29 28 27 27 31 36 38 38 38 39 40 40 39 39 39 37 35 36 42 50 52 52 50 49 48 47 47 46 46 45 45
13 12 11 9 7 5 3 3 5 8 11 13 15 16 17 18 18 17 16 16 16 17 18 19 19 19 20 21 22 23 24 25 24 24 23 23 23 25 26 27 28 29 31 33 35 34 32 31 31 31 31 31 32 32 31 30 29 28 28 30 34 38 40 40 41 40 38 36 35 36 36 35 33 35 42 48 50 50 48 47 46 46 45 45 44 44
13 11 10 8 7 5 3 3 5 8 10 13 15 16 17 17 17 16 15 15 16 16 17 17 17 17 17 19 21 22 24 25 25 25 24 24 24 25 26 27 28 29 30 33 34 35 33 32 31 31 31 32 32 32 32 32 31 30 29 29 33 37 40 42 42 40 37 34 33 34 35 34 32 31 35 41 47 49 47 46 45 45 44 44 43 42
13 12 10 8 7 5 4 4 5 7 10 12 14 16 17 17 16 15 15 15 15 16 17 17 17 16 16 16 18 20 22 23 25 25 25 24 24 25 26 28 28 29 30 32 34 35 35 33 32 32 32 32 32 32 32 32 32 31 30 30 32 35 38 41 42 41 38 34 33 34 36 36 35 33 33 35 41 46 47 45 44 43 43 43 42 42
14 12 11 9 8 6 5 4 5 6 9 11 13 15 16 16 16 15 14 14 15 16 16 17 17 16 16 15 16 17 19 21 23 25 25 25 25 25 26 28 29 29 30 31 34 35 35 34 33 33 32 31 31 32 32 33 33 32 32 31 32 34 36 38 41 41 40 37 35 35 37 38 38 36 35 34 36 41 45 45 43 42 42 42 42 41
15 13 12 10 9 7 6 4 4 5 7 10 12 14 15 15 15 14 14 13 14 15 16 17 17 17 16 16 15 16 17 19 21 23 24 25 25 25 25 27 28 29 29 30 32 34 36 36 35 34 33 32 32 32 32 33 33 33 33 33 33 34 35 37 39 40 40 39 38 37 38 39 39 39 38 36 34 35 40 42 42 41 40 40 40 40
Wind_Direction
289 281 273 266 261 257 254 252 250 248 247 245 244 243 241 238 234 230 225 222 218 213 210 207 205 204 205 208 210 213 217 224 227 226 222 217 213 209 207 206 206 206 205 206 208 212 214 218 220 219 218 217 217 216 215 214 215 216 218 220 222 223 223 222 220 218 216 216 217 217 215 210 207 206 206 206 206 206 207 208 209 211 212 212 211 211
290 280 272 266 262 258 255 253 251 249 247 246 244 243 241 238 234 229 224 220 216 213 211 209 207 205 204 205 207 209 211 216 221 223 221 217 212 209 206 205 205 205 205 205 207 210 212 216 218 219 218 217 217 216 215 215 215 216 218 221 223 224 225 225 225 223 221 218 217 215 211 205 203 203 205 205 204 204 204 205 207 209 210 211 210 210
294 281 270 264 261 259 256 253 251 250 248 247 245 243 241 238 234 228 222 217 213 211 211 211 209 206 204 204 205 206 207 208 212 217 219 216 212 208 206 205 204 204 204 204 205 207 208 212 216 218 218 218 217 216 216 216 216 217 218 220 222 224 224 225 227 227 225 221 217 212 207 203 202 203 205 204 203 203 203 204 206 208 209 210 210 211
298 288 274 263 256 254 254 254 252 250 249 247 246 244 242 239 234 228 222 215 210 208 210 213 212 209 206 206 208 209 209 207 208 212 216 215 211 208 206 204 204 203 203 203 204 204 203 207 213 216 217 217 217 217 216 216 217 217 219 220 222 222 223 225 227 228 228 224 219 213 208 205 205 205 205 204 203 203 203 204 206 208 209 210 210 211
300 293 281 267 257 252 252 254 253 251 249 248 246 245 243 239 235 229 222 214 209 207 208 212 214 212 211 211 213 216 217 215 213 213 215 214 211 208 206 204 203 203 202 203 203 201 199 202 208 213 216 217 217 217 217 217 217 218 219 220 221 221 222 224 227 229 229 226 221 215 210 207 206 206 206 204 203 203 204 205 206 208 209 210 211 212
302 295 286 273 262 255 252 253 252 251 249 248 246 245 243 240 235 229 222 214 209 207 207 208 211 213 214 215 217 220 222 222 220 218 216 214 211 208 206 204 203 202 201 202 202 200 198 199 203 208 213 215 216 217 217 217 217 218 218 219 220 220 221 224 227 229 229 226 222 218 213 209 207 206 205 204 203 203 205 206 207 208 210 211 212 213
301 295 287 277 267 258 254 252 252 251 250 248 247 245 244 241 236 229 221 213 209 208 207 206 206 209 214 217 219 221 223 224 223 222 220 216 212 209 206 204 203 202 201 201 201 200 197 198 200 204 209 213 215 216 216 216 216 216 217 218 218 219 220 223 227 229 228 224 221 218 216 213 209 207 205 204 204 204 206 207 208 209 211 211 212 212
300 294 287 280 272 262 255 253 253 252 250 249 247 246 244 240 236 229 221 213 209 208 209 205 202 203 210 216 220 222 224 225 226 225 223 219 215 210 207 204 203 201 200 201 201 199 196 196 198 201 206 211 213 215 215 215 215 215 215 216 216 217 219 222 225 226 225 221 218 217 216 215 213 210 208 206 205 206 207 208 210 210 211 212 212 212
301 295 288 281 275 269 261 255 253 253 251 249 247 245 242 239 235 228 220 213 209 208 208 206 201 198 203 210 216 220 223 225 225 225 223 220 216 212 208 205 203 201 200 201 201 198 195 194 196 200 205 209 212 213 214 214 213 212 213 213 214 214 216 219 221 222 221 217 214 213 214 215 215 213 210 208 207 208 208 210 211 212 212 213 213 213
300 295 288 281 276 273 269 263 256 252 250 248 246 244 241 238 234 228 219 212 208 207 208 206 200 195 196 202 207 212 215 218 220 221 221 219 216 212 208 205 203 201 200 200 200 198 193 192 193 197 202 206 210 212 213 212 211 210 210 211 211 212 214 216 218 220 218 214 210 209 209 211 213 213 212 210 209 209 210 211 212 213 213 214 214 214
298 294 288 282 276 273 270 265 257 251 248 247 245 243 241 239 234 227 219 212 209 208 208 207 202 195 192 195 199 203 206 209 213 216 218 218 216 212 209 206 203 201 200 200 200 197 191 189 190 194 198 202 206 209 210 210 210 209 209 210 210 211 212 215 218 220 220 216 212 208 206 207 210 212 212 211 211 211 211 212 213 213 214 214 214 214
298 294 288 281 277 274 271 264 255 249 245 243 242 239 237 235 232 226 219 214 211 211 211 209 204 199 195 195 196 198 202 207 210 213 216 216 215 213 210 207 203 201 200 200 199 196 189 186 187 191 194 198 202 206 208 208 208 208 208 209 210 210 212 214 218 221 223 222 219 215 211 209 209 211 213 213 213 213 214 214 214 214 214 214 213 212
296 292 287 281 277 275 274 266 256 247 241 239 236 234 231 229 227 223 218 214 212 212 213 211 207 202 201 202 200 200 204 208 210 212 213 213 214 213 211 208 205 202 200 201 200 196 189 184 184 188 191 195 199 203 206 207 207 207 208 209 209 210 212 215 218 222 225 227 227 225 222 218 215 214 215 215 216 216 216 216 216 216 216 215 214 212
294 290 285 280 277 276 274 267 256 245 238 236 234 233 231 228 226 222 217 213 212 213 214 212 208 205 204 206 205 205 207 209 209 209 211 212 211 210 211 209 205 202 201 202 201 197 190 183 181 184 189 192 197 201 205 206 207 207 208 209 210 211 213 216 219 223 226 229 230 230 228 225 222 220 219 219 219 220 220 219 219 218 217 216 215 213
293 289 283 278 276 275 275 268 255 243 235 233 232 231 228 226 224 220 216 212 211 212 213 211 208 206 205 205 206 207 208 207 204 202 206 209 209 209 210 209 205 202 201 202 202 199 192 183 179 181 186 191 196 200 204 206 207 208 209 210 210 212 214 217 221 224 227 229 229 228 227 226 224 222 221 221 222 222 223 223 221 219 217 216 215 213
291 287 281 274 272 272 273 267 255 242 232 229 227 225 223 220 218 216 214 211 211 211 212 210 208 207 205 204 204 204 204 200 196 194 197 201 205 208 210 209 205 203 203 203 202 199 194 185 179 179 184 189 195 199 203 206 208 209 210 211 212 213 215 218 221 224 226 226 225 223 222 221 221 220 221 221 222 223 223 223 221 219 216 214 211 209
290 286 279 271 268 269 270 265 252 238 229 226 224 223 221 218 215 213 212 210 209 211 211 208 206 206 206 203 201 200 198 192 189 189 191 193 200 206 208 207 205 205 207 205 203 200 195 187 180 178 182 189 194 197 201 204 207 210 211 212 213 214 215 218 220 221 221 220 218 216 214 213 213 215 217 219 221 221 220 219 218 216 213 209 205 201
288 284 276 269 266 267 268 263 249 234 226 224 223 222 220 217 214 211 210 207 208 210 211 209 207 206 204 200 197 195 193 188 186 186 186 190 198 204 206 206 206 207 208 207 205 201 196 189 181 178 182 188 192 196 198 201 205 208 210 212 212 213 214 215 215 215 213 211 210 209 208 207 207 208 211 215 217 217 216 213 212 210 207 203 198 194
285 280 274 267 263 262 264 260 246 233 225 223 222 221 218 213 210 208 207 206 206 207 209 209 209 207 204 201 197 192 189 187 186 184 184 189 199 205 205 205 207 210 211 210 207 203 199 192 183 179 182 187 191 193 195 197 201 205 208 209 210 210 210 209 208 206 205 204 203 203 203 204 204 204 206 209 212 213 212 209 207 205 203 199 196 193
281 277 272 264 259 257 258 254 243 231 224 222 221 220 217 211 207 205 205 205 205 206 207 207 207 206 203 202 198 193 189 188 187 184 183 190 200 206 205 204 206 210 213 211 207 204 201 195 185 179 182 187 190 191 190 192 196 200 203 205 205 205 204 203 202 200 200 200 199 200 201 202 202 203 204 206 208 209 209 208 206 204 202 201 199 197
277 272 267 261 257 254 253 249 240 231 223 220 220 219 217 211 206 203 203 204 204 205 206 207 206 204 200 198 195 190 188 188 187 185 184 190 201 207 206 204 204 208 212 211 208 205 203 198 188 180 182 187 189 188 187 188 191 194 197 200 200 200 199 198 197 196 197 199 199 200 200 200 200 201 203 204 206 207 208 208 207 206 206 206 206 205
273 267 261 256 254 252 250 245 236 228 222 220 219 218 215 210 204 200 200 202 202 203 204 206 206 204 201 199 194 188 184 184 184 183 183 188 199 207 206 204 204 207 212 212 210 207 205 201 192 182 182 187 188 187 186 188 189 191 193 195 196 196 196 195 194 194 195 198 200 202 201 199 199 199 201 203 204 206 208 210 211 211 212 212 211 209
269 262 255 250 249 248 247 242 233 225 221 220 220 218 215 209 203 199 198 199 200 201 202 204 204 204 203 202 198 192 185 182 179 177 178 184 196 205 206 204 204 206 212 213 211 208 205 202 194 182 182 186 188 187 186 188 189 190 191 192 193 193 193 192 192 193 194 196 199 201 201 199 198 198 200 201 202 204 206 209 212 215 215 215 213 209
266 260 252 244 242 243 243 239 231 224 221 220 219 217 214 208 203 198 197 198 200 201 201 202 202 203 203 202 200 195 187 179 174 171 173 181 193 201 203 202 202 204 210 212 212 210 206 202 193 180 181 186 187 187 186 187 187 188 189 190 191 191 191 191 191 192 193 196 198 199 199 198 196 196 197 198 199 200 202 205 209 212 213 211 208 205
261 256 248 241 238 239 240 236 229 223 220 219 218 216 213 208 202 198 195 195 197 199 199 199 200 201 202 201 199 194 186 176 169 167 170 178 189 196 197 199 199 201 207 211 212 210 207 203 193 180 179 185 188 188 188 187 185 185 186 187 188 188 189 189 189 190 192 195 196 196 195 193 192 192 192 193 195 196 197 200 203 205 206 204 202 200
255 250 245 239 237 238 238 233 227 222 219 218 218 216 213 207 201 196 192 191 193 194 195 196 199 201 202 202 201 197 189 178 170 167 169 176 184 190 192 198 198 199 204 209 212 212 208 204 194 179 177 185 188 189 189 187 184 182 182 183 184 185 186 187 188 188 189 191 191 190 189 187 186 186 187 188 190 192 193 194 195 197 199 199 198 198
252 247 242 239 238 237 235 230 225 220 218 217 217 215 212 207 201 197 194 191 190 191 192 196 198 201 203 205 204 200 192 183 174 169 168 173 178 182 186 193 196 198 202 207 212 213 209 204 193 179 176 183 188 190 189 187 183 180 179 178 179 181 183 185 185 185 185 186 185 184 183 182 181 181 182 184 186 188 188 188 189 190 193 196 197 199
253 248 243 241 239 236 232 227 222 219 217 216 216 214 211 206 202 199 198 194 191 190 191 194 197 199 202 204 204 200 193 187 179 171 167 171 175 177 177 184 193 199 201 205 210 212 209 205 195 182 176 181 186 189 189 186 183 179 177 176 176 178 180 181 182 183 183 182 181 180 180 179 178 178 179 180 182 184 185 185 185 186 189 194 198 201
256 250 245 241 237 233 227 223 219 217 216 215 214 213 210 206 202 200 198 194 190 188 189 192 194 197 200 204 203 199 195 191 182 172 166 170 174 173 169 171 186 196 199 202 207 210 208 204 197 184 176 179 184 187 187 185 182 180 178 176 176 176 176 177 178 179 180 180 180 179 178 177 177 176 176 177 179 180 181 182 183 184 188 193 198 203
259 253 246 240 235 230 224 220 217 216 215 215 213 211 209 205 202 199 196 194 191 189 188 191 193 196 200 203 203 200 197 192 183 172 167 169 171 168 163 165 176 187 193 195 200 204 204 202 196 184 176 178 183 185 185 182 180 179 179 179 178 177 175 174 175 175 176 177 177 176 176 175 175 174 174 174 175 176 178 179 180 183 186 192 197 202
263 254 243 237 231 226 221 218 216 215 214 214 213 210 207 203 200 198 196 195 193 190 189 191 192 194 198 200 200 200 197 191 180 170 166 168 167 164 161 163 169 179 187 191 193 196 199 200 196 188 178 179 182 184 183 180 178 178 179 180 180 179 177 176 175 175 175 174 173 173 173 173 173 172 172 172 173 174 175 176 178 180 183 187 192 197
269 254 240 232 226 222 219 216 214 214 213 213 212 209 205 201 198 197 197 195 193 191 190 190 192 194 197 199 200 199 196 190 179 169 166 166 164 162 160 161 166 173 183 190 192 193 195 199 198 192 182 180 181 183 183 181 178 177 177 178 179 180 180 179 178 178 177 175 173 171 172 171 171 171 171 171 173 174 176 177 178 179 181 184 187 191
275 260 242 231 224 219 216 214 213 212 212 212 211 208 205 201 198 197 197 195 192 189 188 188 191 195 200 203 203 200 195 190 181 171 166 163 162 160 159 161 165 172 179 187 192 194 196 198 199 195 187 183 182 183 184 184 182 179 177 176 178 180 182 182 182 182 181 179 177 175 174 172 171 171 171 172 173 175 178 179 180 181 182 183 184 186
274 261 245 232 223 216 212 211 211 210 211 211 210 208 204 201 198 197 195 194 191 188 187 188 191 195 200 205 205 200 194 190 183 173 166 163 161 160 160 162 166 171 177 184 190 194 196 199 200 199 192 187 184 184 185 186 185 182 179 176 176 178 180 182 184 186 186 185 183 180 178 176 174 173 173 173 175 177 179 181 182 182 183 184 185 185
264 253 242 231 222 214 209 208 208 208 209 209 209 207 204 201 199 197 194 193 191 190 189 189 189 191 195 200 201 198 194 191 184 175 167 163 161 161 162 165 168 170 174 180 187 192 195 199 201 201 197 191 187 185 185 186 186 184 182 179 177 176 176 179 182 186 188 188 187 185 183 180 178 176 175 176 177 178 180 182 182 182 183 184 186 186
249 241 234 227 218 211 206 205 205 206 207 207 207 206 204 202 200 197 194 192 192 192 192 190 187 187 190 196 198 198 195 191 185 177 170 165 162 162 164 166 168 168 170 177 184 190 193 197 200 202 200 195 189 186 185 185 185 185 184 184 181 177 174 174 179 184 187 189 189 188 186 184 182 181 180 180 180 181 182 183 183 183 183 184 186 188
233 228 224 220 214 208 205 203 203 204 204 205 205 205 203 202 201 198 194 192 192 193 193 191 186 183 187 194 198 198 196 192 187 181 173 167 164 163 165 167 167 167 168 173 181 188 193 196 199 201 202 199 194 189 187 186 185 185 185 185 182 176 170 171 176 181 185 188 189 189 189 188 187 186 184 184 184 184 184 185 185 185 184 185 187 189
216 217 217 215 211 207 204 203 202 202 203 203 204 203 202 202 200 197 194 192 192 193 194 192 186 181 184 192 198 199 196 193 190 184 176 170 166 165 166 168 167 166 166 171 178 186 192 195 198 200 203 202 198 193 190 188 187 186 185 183 177 169 164 166 173 179 183 186 188 190 190 190 190 189 188 187 187 186 186 187 187 186 186 187 188 190
192 206 212 213 211 208 205 204 203 202 202 203 203 202 201 200 199 197 194 192 191 191 192 192 188 184 184 190 195 196 195 193 191 186 179 173 168 167 167 167 167 167 166 169 175 183 189 193 196 198 199 199 197 194 191 190 190 189 187 183 174 164 159 160 166 173 179 183 187 189 191 191 192 191 190 189 189 188 188 188 188 188 188 189 190 191
156 185 206 216 216 211 208 207 205 203 202 202 201 201 200 199 198 196 194 192 190 189 189 189 187 186 187 191 195 196 195 194 192 188 182 176 172 169 167 167 167 167 167 168 172 179 187 192 194 196 196 196 194 190 189 191 191 191 190 187 180 169 160 158 159 165 174 180 184 188 190 191 192 192 192 191 191 190 190 189 189 189 190 191 192 193
127 148 176 210 219 214 211 208 205 203 202 201 200 199 198 197 195 194 192 190 188 187 186 185 185 185 187 191 194 195 194 194 192 190 185 180 176 171 168 166 166 168 168 170 172 177 183 188 191 193 195 196 194 190 187 189 192 193 193 192 189 182 171 161 157 159 167 175 181 185 188 190 191 192 192 192 192 191 191 191 191 191 192 193 194 195
116 127 138 152 187 210 214 210 206 203 201 200 199 198 196 194 192 190 189 187 186 184 183 182 183 184 185 188 190 191 191 190 190 190 188 184 180 174 170 166 166 169 171 172 173 176 180 184 188 191 194 196 195 192 188 188 190 193 194 194 193 189 182 172 163 159 163 169 176 181 186 189 190 190 191 191 192 192 191 191 192 193 194 195 196 197
105 110 115 121 142 191 212 211 207 202 199 198 197 195 192 190 188 187 186 185 185 185 184 184 184 185 186 186 188 188 188 186 186 187 188 187 183 178 172 167 166 169 173 174 175 176 177 180 184 188 192 194 195 193 190 188 188 190 191 192 192 192 188 183 175 167 165 167 170 175 180 186 189 190 190 191 191 191 191 191 192 194 195 196 197 198
94 96 96 97 107 154 204 209 204 198 195 195 193 191 188 186 184 183 183 184 185 186 186 187 188 188 188 186 185 186 187 183 181 182 186 189 187 182 175 169 166 168 172 175 176 175 175 177 181 185 189 192 192 192 191 189 187 187 187 188 190 191 191 187 181 175 171 169 168 169 173 182 188 190 189 189 189 190 190 192 193 195 196 197 198 199
88 89 88 87 89 101 169 201 196 191 189 189 189 188 185 183 182 181 182 183 184 185 185 186 187 189 189 186 184 183 184 181 178 178 182 188 190 187 180 173 168 167 170 174 176 176 175 176 178 181 185 187 188 188 187 187 187 186 185 185 188 190 190 186 182 178 173 169 166 164 165 174 184 189 189 188 188 189 190 192 194 195 197 198 199 200
85 86 86 86 86 90 123 177 185 183 183 185 185 185 183 182 182 182 182 182 183 183 182 182 183 186 188 186 184 183 183 182 180 178 180 185 190 191 186 179 172 167 167 171 174 176 176 176 176 178 181 183 185 185 184 184 184 184 183 184 186 188 187 184 180 176 172 167 163 160 160 165 176 185 189 189 189 189 190 192 194 195 197 198 199 200
83 85 85 85 86 90 109 155 173 177 179 181 183 183 183 182 182 183 183 183 181 180 179 179 180 182 184 184 184 184 183 183 182 180 179 182 187 191 190 184 176 169 166 167 171 175 177 177 176 177 180 181 182 183 183 182 182 181 181 182 184 186 186 185 182 179 175 169 162 157 155 155 162 175 186 190 190 190 190 191 193 195 197 198 199 200
79 82 83 83 84 87 104 140 163 172 177 180 182 183 183 183 184 185 185 183 180 178 176 175 176 177 179 181 182 183 183 183 182 180 179 180 185 189 191 187 180 172 166 165 168 173 177 178 178 179 180 181 181 182 182 182 181 180 180 181 183 186 187 188 187 185 181 174 165 159 155 153 154 162 175 184 188 190 190 191 193 195 196 198 198 199
75 79 81 83 84 89 101 128 156 169 176 179 181 183 184 184 185 186 187 185 181 178 175 172 171 171 172 174 177 180 181 182 181 180 179 180 183 188 190 188 182 175 168 164 165 170 176 179 180 180 181 181 181 181 182 182 181 180 179 180 183 186 189 191 192 191 188 182 173 166 162 160 157 158 164 174 183 188 189 190 191 193 195 197 197 198
70 75 79 82 84 87 97 117 143 162 173 178 181 184 186 187 188 188 188 186 183 180 176 173 170 168 168 168 171 175 178 180 180 179 179 180 183 186 190 190 186 179 171 165 163 167 175 180 182 181 180 180 180 181 181 181 181 180 180 181 183 186 189 192 193 194 193 189 181 174 170 167 165 163 162 167 177 186 190 190 191 192 194 196 196 196
64 68 72 76 78 80 86 102 129 153 167 175 180 184 187 190 191 190 189 187 185 182 179 175 172 169 168 167 168 171 175 177 178 178 179 180 181 184 188 190 189 184 177 168 163 165 171 179 183 182 180 179 179 180 181 181 181 181 181 182 183 186 189 192 194 194 194 192 188 181 174 170 168 167 166 166 171 180 189 192 193 193 194 195 195 195
Height
2865 2865 2865 2864 2864 2863 2863 2863 2863 2863 2863 2864 2864 2865 2867 2868 2870 2872 2873 2875 2877 2878 2880 2882 2884 2886 2888 2891 2893 2896 2897 2899 2900 2902 2906 2909 2913 2917 2921 2925 2930 2934 2938 2942 2946 2949 2951 2952 2955 2959 2963 2968 2972 2975 2979 2983 2987 2990 2992 2994 2997 3000 3003 3005 3008 3010 3012 3015 3018 3020 3023 3025 3028 3032 3035 3038 3040 3043 3047 3051 3054 3057 3061 3064 3067 3071
2864 2863 2863 2863 2862 2862 2862 2862 2862 2862 2862 2862 2862 2863 2865 2866 2868 2870 2871 2873 2874 2876 2877 2879 2882 2884 2886 2888 2891 2893 2896 2897 2899 2901 2903 2907 2911 2914 2918 2922 2927 2931 2935 2940 2944 2947 2948 2950 2952 2956 2960 2965 2969 2972 2976 2980 2984 2987 2990 2992 2995 2998 3001 3003 3006 3008 3011 3013 3016 3018 3020 3023 3026 3030 3033 3036 3037 3040 3045 3048 3052 3055 3058 3061 3065 3068
2862 2862 2862 2862 2861 2861 2861 2861 2861 2860 2860 2860 2861 2862 2863 2864 2866 2868 2869 2871 2872 2874 2876 2878 2880 2882 2885 2887 2889 2891 2895 2897 2898 2899 2901 2904 2908 2912 2915 2919 2923 2927 2932 2937 2941 2944 2946 2947 2950 2953 2957 2962 2966 2970 2973 2977 2981 2984 2987 2990 2993 2996 2999 3002 3004 3007 3009 3012 3015 3017 3019 3021 3024 3027 3031 3033 3035 3038 3042 3045 3049 3052 3055 3059 3062 3065
2861 2860 2860 2860 2860 2860 2859 2859 2859 2859 2859 2859 2859 2860 2862 2863 2864 2866 2867 2869 2871 2873 2875 2877 2880 2882 2884 2886 2887 2889 2892 2894 2896 2897 2899 2902 2905 2909 2913 2917 2921 2925 2930 2934 2938 2941 2943 2945 2947 2951 2955 2959 2963 2967 2971 2974 2978 2982 2985 2988 2991 2994 2997 3000 3003 3005 3008 3011 3013 3015 3017 3019 3022 3025 3027 3030 3033 3036 3039 3042 3046 3049 3052 3056 3059 3063
2860 2859 2859 2858 2858 2858 2858 2858 2857 2857 2857 2857 2858 2859 2860 2861 2862 2864 2866 2867 2870 2872 2874 2876 2878 2881 2883 2884 2886 2887 2888 2890 2892 2894 2897 2900 2903 2907 2911 2914 2919 2923 2928 2932 2936 2939 2941 2943 2946 2949 2952 2957 2960 2964 2968 2972 2976 2980 2983 2986 2989 2992 2995 2998 3001 3003 3006 3008 3010 3012 3014 3017 3019 3022 3025 3028 3031 3034 3037 3040 3043 3047 3050 3054 3057 3060
2858 2858 2857 2857 2857 2857 2857 2857 2856 2856 2856 2856 2856 2857 2858 2859 2861 2863 2865 2867 2868 2870 2872 2874 2876 2878 2881 2882 2883 2884 2886 2887 2889 2892 2895 2898 2902 2905 2908 2912 2917 2921 2926 2930 2934 2937 2939 2941 2944 2947 2950 2954 2958 2962 2966 2970 2974 2977 2981 2983 2986 2990 2993 2996 2999 3001 3003 3005 3007 3009 3012 3015 3018 3020 3023 3026 3029 3032 3035 3038 3041 3044 3048 3052 3055 3058
2857 2857 2856 2856 2855 2855 2855 2855 2855 2854 2854 2854 2855 2856 2857 2858 2860 2861 2863 2865 2866 2868 2870 2872 2874 2877 2879 2881 2882 2883 2885 2886 2888 2891 2894 2897 2900 2903 2907 2910 2914 2919 2923 2928 2932 2935 2937 2939 2941 2944 2947 2951 2955 2959 2963 2967 2971 2975 2978 2981 2984 2988 2991 2994 2997 2999 3001 3003 3005 3007 3010 3013 3016 3019 3022 3025 3027 3030 3033 3037 3040 3043 3047 3050 3053 3056
2856 2855 2855 2854 2854 2854 2854 2854 2853 2853 2853 2853 2854 2855 2855 2857 2858 2859 2861 2862 2865 2867 2868 2870 2873 2875 2877 2879 2881 2882 2884 2886 2888 2890 2893 2896 2898 2901 2904 2908 2912 2916 2921 2925 2929 2932 2935 2936 2938 2942 2945 2949 2953 2957 2961 2965 2969 2972 2976 2979 2982 2986 2989 2992 2995 2997 2998 3000 3002 3005 3008 3012 3014 3017 3020 3023 3026 3029 3032 3035 3038 3042 3045 3048 3052 3055
2854 2854 2853 2853 2853 2853 2852 2852 2852 2852 2852 2852 2852 2853 2854 2855 2856 2857 2859 2862 2864 2865 2867 2868 2871 2873 2876 2878 2879 2881 2882 2884 2887 2889 2891 2894 2897 2899 2902 2906 2910 2914 2918 2923 2927 2930 2932 2934 2936 2940 2943 2946 2950 2955 2959 2963 2967 2970 2973 2977 2980 2984 2988 2990 2993 2995 2997 2998 3001 3003 3007 3010 3013 3016 3018 3021 3024 3027 3031 3033 3037 3040 3043 3047 3050 3053
2853 2853 2852 2852 2852 2852 2852 2851 2851 2851 2851 2851 2851 2852 2853 2854 2855 2857 2858 2860 2862 2864 2865 2867 2869 2871 2874 2876 2878 2879 2881 2883 2885 2887 2889 2892 2894 2897 2900 2904 2908 2912 2917 2921 2925 2928 2930 2932 2935 2938 2941 2944 2948 2952 2957 2961 2964 2968 2971 2974 2978 2982 2986 2988 2991 2993 2995 2997 2999 3002 3005 3008 3012 3014 3016 3019 3022 3025 3028 3032 3035 3038 3042 3045 3048 3051
2852 2852 2851 2851 2851 2850 2850 2850 2850 2850 2850 2850 2850 2851 2852 2853 2854 2855 2857 2858 2860 2862 2863 2865 2867 2870 2872 2874 2876 2877 2879 2881 2883 2886 2888 2890 2892 2895 2898 2902 2906 2910 2914 2919 2922 2925 2927 2930 2933 2936 2939 2942 2946 2950 2954 2958 2962 2966 2969 2972 2976 2980 2984 2987 2989 2992 2994 2996 2998 3000 3003 3006 3009 3012 3014 3017 3020 3023 3027 3030 3033 3037 3040 3043 3046 3049
2851 2851 2850 2850 2849 2849 2849 2849 2849 2849 2849 2849 2850 2850 2851 2852 2852 2854 2855 2856 2858 2860 2862 2864 2866 2868 2870 2872 2873 2875 2877 2879 2882 2884 2886 2889 2891 2894 2897 2900 2904 2908 2912 2917 2920 2923 2925 2928 2931 2934 2937 2940 2944 2948 2952 2956 2960 2963 2967 2970 2974 2978 2982 2985 2987 2990 2992 2995 2997 2999 3002 3004 3007 3010 3012 3014 3018 3022 3025 3028 3032 3035 3038 3041 3044 3047
2850 2849 2849 2848 2848 2848 2848 2848 2848 2848 2848 2848 2848 2849 2849 2850 2851 2852 2853 2855 2857 2858 2860 2862 2865 2867 2869 2870 2871 2873 2875 2877 2880 2882 2884 2887 2890 2893 2896 2900 2903 2907 2910 2915 2918 2921 2923 2926 2929 2932 2935 2938 2942 2946 2950 2953 2957 2961 2964 2968 2972 2976 2980 2983 2986 2988 2991 2993 2996 2998 3001 3003 3006 3008 3011 3013 3016 3020 3023 3026 3029 3033 3036 3039 3042 3045
2849 2848 2847 2847 2847 2847 2847 2847 2847 2847 2847 2847 2848 2848 2848 2849 2850 2851 2852 2854 2856 2857 2858 2861 2864 2866 2867 2868 2870 2872 2874 2876 2878 2881 2884 2886 2888 2891 2894 2897 2901 2904 2908 2912 2916 2919 2922 2924 2927 2930 2933 2936 2940 2944 2947 2951 2955 2959 2962 2966 2970 2974 2978 2981 2984 2987 2989 2992 2995 2997 2999 3002 3004 3007 3010 3012 3015 3017 3020 3023 3027 3030 3033 3037 3040 3042
2847 2847 2846 2846 2846 2846 2846 2846 2846 2846 2847 2847 2847 2848 2848 2849 2850 2850 2852 2853 2855 2856 2858 2861 2862 2864 2866 2867 2869 2871 2873 2875 2878 2881 2883 2886 2888 2890 2892 2894 2897 2901 2906 2910 2913 2917 2920 2922 2925 2928 2931 2935 2939 2942 2946 2949 2953 2957 2960 2964 2968 2972 2976 2979 2982 2985 2988 2991 2993 2995 2998 3000 3003 3006 3008 3010 3012 3015 3018 3021 3024 3027 3030 3034 3037 3040
2846 2845 2845 2845 2845 2845 2845 2845 2845 2845 2846 2846 2847 2847 2847 2848 2848 2849 2850 2851 2853 2855 2857 2860 2862 2863 2864 2866 2868 2870 2872 2875 2877 2880 2882 2885 2887 2889 2891 2893 2896 2901 2905 2908 2912 2915 2918 2920 2923 2926 2929 2933 2937 2941 2944 2947 2951 2955 2959 2962 2966 2970 2974 2977 2980 2983 2987 2989 2992 2994 2996 2998 3001 3004 3006 3008 3011 3013 3015 3018 3021 3024 3027 3031 3034 3037
2845 2844 2844 2844 2844 2844 2845 2844 2844 2844 2845 2845 2845 2846 2846 2846 2847 2848 2849 2850 2852 2854 2856 2858 2860 2862 2864 2866 2868 2870 2872 2874 2877 2879 2882 2884 2886 2888 2890 2892 2896 2900 2905 2907 2910 2913 2916 2918 2921 2924 2928 2932 2935 2939 2942 2946 2950 2953 2957 2961 2965 2968 2972 2976 2979 2982 2985 2987 2990 2992 2993 2996 2998 3002 3004 3007 3009 3011 3013 3016 3019 3022 3025 3028 3031 3034
2844 2843 2843 2843 2843 2843 2844 2843 2843 2843 2844 2844 2844 2845 2845 2846 2847 2847 2848 2850 2852 2853 2855 2857 2859 2860 2862 2865 2868 2870 2872 2874 2876 2878 2881 2883 2885 2887 2888 2891 2894 2897 2901 2904 2907 2911 2913 2916 2919 2922 2926 2931 2934 2938 2942 2945 2948 2952 2956 2959 2963 2967 2970 2974 2977 2980 2983 2986 2988 2990 2992 2994 2997 2999 3002 3004 3007 3009 3012 3014 3018 3021 3024 3027 3029 3032
2842 2842 2842 2842 2842 2842 2842 2842 2842 2843 2843 2843 2844 2844 2845 2845 2846 2847 2848 2849 2850 2852 2853 2856 2858 2860 2862 2864 2866 2868 2871 2873 2875 2877 2880 2882 2883 2885 2887 2890 2892 2895 2899 2902 2906 2909 2912 2914 2917 2921 2926 2930 2933 2937 2941 2944 2947 2951 2954 2958 2961 2965 2968 2972 2975 2977 2980 2983 2986 2988 2990 2992 2995 2997 3000 3002 3005 3007 3010 3013 3016 3019 3023 3025 3027 3030
2841 2841 2841 2841 2841 2842 2842 2842 2842 2842 2842 2842 2843 2843 2844 2844 2845 2846 2847 2848 2849 2851 2853 2855 2857 2860 2862 2864 2866 2868 2870 2872 2874 2876 2878 2881 2882 2884 2886 2889 2893 2897 2898 2901 2904 2907 2911 2914 2917 2921 2925 2929 2932 2936 2939 2943 2946 2949 2953 2956 2960 2963 2966 2969 2972 2975 2977 2980 2983 2986 2988 2991 2993 2996 2998 3001 3003 3006 3009 3012 3014 3017 3021 3023 3026 3028
2840 2840 2840 2840 2840 2840 2841 2841 2841 2841 2841 2842 2842 2842 2843 2844 2844 2845 2846 2847 2849 2851 2853 2855 2857 2859 2861 2864 2866 2868 2870 2872 2874 2876 2878 2880 2882 2883 2885 2888 2892 2895 2897 2899 2902 2906 2910 2913 2917 2920 2924 2927 2930 2934 2938 2942 2945 2948 2951 2954 2958 2961 2964 2967 2970 2972 2976 2978 2981 2984 2986 2989 2992 2994 2997 3000 3002 3005 3008 3011 3013 3017 3020 3022 3025 3027
2839 2839 2839 2839 2839 2839 2839 2839 2840 2840 2840 2841 2841 2842 2842 2843 2844 2845 2846 2847 2849 2851 2852 2854 2856 2858 2860 2862 2864 2866 2868 2871 2873 2875 2878 2880 2882 2883 2884 2887 2891 2894 2896 2898 2901 2904 2909 2913 2916 2919 2923 2926 2929 2933 2937 2941 2944 2946 2949 2952 2956 2959 2962 2965 2968 2971 2974 2977 2980 2982 2984 2987 2990 2992 2996 2999 3002 3004 3007 3010 3012 3015 3018 3021 3023 3026
2837 2837 2838 2838 2838 2838 2838 2838 2839 2839 2839 2840 2840 2841 2841 2842 2843 2844 2846 2847 2848 2849 2851 2852 2855 2857 2860 2861 2863 2865 2867 2869 2872 2874 2877 2880 2881 2882 2883 2887 2890 2894 2897 2898 2900 2904 2908 2912 2916 2918 2921 2924 2928 2932 2936 2940 2942 2945 2948 2951 2954 2957 2960 2963 2966 2969 2972 2976 2978 2981 2983 2985 2988 2991 2994 2997 3001 3003 3006 3009 3011 3014 3016 3019 3022 3025
2837 2837 2837 2837 2837 2837 2837 2837 2838 2838 2838 2839 2839 2840 2841 2842 2842 2844 2845 2846 2847 2849 2850 2853 2856 2858 2860 2861 2862 2864 2866 2868 2871 2874 2877 2879 2880 2882 2883 2886 2890 2894 2897 2897 2899 2902 2906 2911 2915 2917 2920 2923 2927 2931 2935 2938 2941 2943 2947 2949 2952 2956 2959 2962 2964 2967 2971 2974 2977 2979 2982 2984 2987 2989 2992 2996 2999 3002 3005 3007 3009 3011 3014 3016 3019 3023
2836 2836 2836 2836 2836 2837 2837 2837 2837 2837 2838 2838 2839 2840 2840 2841 2842 2844 2845 2847 2848 2849 2851 2854 2856 2857 2858 2860 2862 2863 2865 2867 2870 2872 2876 2879 2880 2882 2883 2885 2889 2893 2896 2897 2898 2900 2905 2910 2914 2916 2919 2923 2926 2929 2933 2936 2939 2942 2945 2948 2951 2954 2957 2960 2963 2966 2969 2972 2975 2978 2980 2983 2985 2988 2991 2994 2997 3000 3002 3005 3007 3009 3012 3015 3018 3022
2835 2835 2835 2835 2835 2836 2836 2836 2836 2837 2837 2837 2838 2839 2840 2841 2842 2843 2845 2847 2848 2849 2851 2852 2853 2855 2857 2858 2860 2862 2864 2866 2868 2871 2874 2878 2880 2881 2882 2884 2887 2891 2894 2897 2897 2900 2904 2910 2913 2916 2919 2922 2925 2927 2931 2934 2937 2941 2944 2946 2949 2952 2956 2959 2962 2965 2968 2971 2974 2977 2979 2981 2984 2986 2989 2992 2995 2998 3000 3002 3005 3007 3010 3014 3017 3021
2834 2834 2834 2834 2834 2835 2835 2835 2835 2836 2836 2837 2837 2838 2839 2840 2841 2842 2843 2845 2847 2848 2849 2851 2852 2854 2856 2858 2860 2862 2864 2866 2867 2870 2873 2877 2879 2880 2881 2882 2885 2889 2892 2896 2897 2899 2903 2909 2912 2914 2917 2920 2923 2927 2929 2933 2937 2939 2942 2945 2948 2951 2955 2958 2961 2964 2967 2970 2973 2976 2978 2980 2982 2985 2988 2991 2993 2996 2998 3001 3003 3006 3010 3013 3017 3020
2834 2834 2834 2834 2834 2834 2834 2834 2834 2835 2835 2836 2837 2838 2839 2840 2841 2842 2842 2844 2846 2848 2849 2851 2853 2855 2857 2858 2859 2861 2863 2865 2867 2869 2872 2876 2878 2879 2880 2882 2885 2888 2892 2895 2897 2899 2902 2907 2911 2913 2915 2919 2923 2926 2929 2932 2935 2938 2941 2944 2947 2951 2954 2957 2960 2963 2966 2969 2972 2975 2977 2979 2982 2984 2987 2989 2992 2995 2997 3000 3002 3005 3008 3012 3015 3018
2833 2833 2833 2833 2833 2833 2833 2833 2833 2834 2835 2836 2837 2838 2839 2840 2840 2841 2842 2844 2847 2848 2850 2852 2853 2854 2856 2857 2858 2861 2863 2864 2866 2868 2872 2876 2877 2878 2880 2882 2885 2888 2890 2893 2897 2900 2903 2907 2910 2912 2914 2918 2922 2925 2929 2932 2934 2937 2940 2943 2947 2950 2952 2956 2959 2962 2965 2968 2971 2973 2976 2979 2981 2983 2986 2988 2991 2994 2997 2999 3001 3004 3007 3010 3013 3016
2832 2832 2832 2832 2832 2832 2832 2832 2833 2833 2834 2835 2836 2837 2838 2840 2841 2842 2843 2844 2846 2848 2850 2851 2852 2854 2855 2857 2859 2861 2862 2864 2865 2867 2871 2875 2877 2878 2881 2883 2885 2887 2889 2892 2896 2899 2903 2907 2909 2911 2914 2917 2921 2925 2928 2931 2933 2937 2940 2943 2946 2949 2952 2955 2958 2961 2964 2967 2969 2971 2975 2978 2981 2983 2985 2987 2990 2993 2995 2998 3000 3002 3006 3009 3012 3015
2832 2831 2831 2831 2831 2831 2831 2832 2832 2833 2834 2835 2836 2837 2838 2840 2841 2842 2843 2844 2846 2847 2850 2851 2852 2853 2855 2857 2859 2861 2862 2863 2865 2867 2870 2874 2877 2879 2880 2883 2885 2887 2888 2891 2895 2898 2902 2905 2908 2911 2913 2916 2920 2923 2926 2929 2932 2935 2938 2942 2945 2947 2951 2954 2957 2961 2963 2966 2968 2971 2973 2977 2980 2982 2984 2986 2989 2991 2994 2997 2999 3002 3004 3007 3010 3013
2831 2830 2830 2830 2830 2830 2831 2831 2832 2833 2833 2835 2836 2837 2838 2840 2841 2842 2843 2844 2846 2848 2850 2851 2852 2854 2855 2856 2857 2859 2861 2863 2865 2867 2869 2873 2877 2878 2880 2882 2885 2887 2888 2891 2893 2896 2900 2903 2907 2910 2912 2915 2918 2922 2925 2927 2931 2934 2937 2939 2942 2946 2949 2952 2956 2960 2962 2964 2967 2970 2972 2976 2978 2980 2983 2986 2988 2990 2993 2995 2998 3000 3003 3006 3009 3011
2830 2830 2829 2829 2829 2830 2830 2831 2832 2832 2833 2835 2836 2837 2838 2840 2841 2842 2843 2845 2846 2848 2850 2852 2853 2855 2855 2856 2857 2859 2862 2863 2865 2867 2869 2873 2877 2879 2880 2882 2885 2887 2888 2891 2893 2896 2900 2903 2906 2909 2912 2914 2917 2920 2923 2927 2930 2932 2935 2937 2940 2943 2947 2951 2955 2958 2960 2963 2966 2968 2971 2974 2977 2979 2982 2984 2987 2990 2992 2994 2997 2999 3002 3005 3007 3010
2829 2829 2829 2828 2829 2829 2830 2831 2832 2832 2833 2835 2836 2837 2838 2840 2841 2842 2844 2845 2847 2848 2849 2852 2854 2855 2856 2857 2858 2860 2862 2864 2865 2867 2869 2872 2876 2879 2881 2883 2885 2887 2889 2891 2894 2897 2901 2904 2907 2909 2911 2913 2915 2918 2922 2925 2928 2931 2933 2935 2937 2940 2944 2948 2952 2956 2959 2961 2963 2966 2969 2972 2975 2977 2980 2983 2986 2989 2991 2994 2996 2998 3001 3004 3006 3009
2828 2828 2828 2828 2828 2829 2830 2830 2831 2832 2833 2835 2836 2837 2838 2840 2841 2842 2844 2845 2846 2848 2849 2851 2853 2855 2856 2857 2858 2860 2862 2863 2865 2867 2870 2872 2876 2879 2882 2883 2885 2887 2889 2891 2894 2897 2901 2904 2907 2908 2909 2912 2914 2917 2921 2923 2926 2929 2932 2934 2936 2937 2940 2945 2949 2953 2956 2958 2961 2964 2966 2969 2972 2975 2978 2981 2984 2987 2990 2992 2995 2998 3001 3004 3006 3009
2828 2828 2827 2828 2828 2829 2829 2830 2831 2832 2833 2835 2836 2837 2838 2840 2841 2842 2844 2845 2846 2847 2849 2851 2853 2855 2856 2857 2858 2859 2861 2863 2865 2867 2870 2872 2875 2879 2882 2884 2886 2887 2889 2892 2894 2897 2900 2903 2905 2907 2908 2911 2914 2916 2919 2922 2925 2928 2931 2933 2934 2935 2937 2941 2945 2949 2952 2955 2958 2961 2964 2967 2970 2973 2976 2979 2982 2985 2988 2991 2994 2997 3000 3003 3007 3009
2828 2827 2827 2828 2828 2829 2829 2830 2831 2832 2833 2835 2836 2837 2839 2840 2842 2843 2844 2845 2847 2847 2849 2851 2853 2855 2857 2857 2858 2859 2861 2863 2865 2867 2869 2872 2875 2878 2882 2884 2885 2887 2889 2892 2895 2897 2900 2902 2905 2907 2908 2910 2912 2914 2917 2920 2923 2927 2931 2933 2933 2933 2935 2939 2942 2946 2949 2953 2956 2959 2962 2966 2969 2972 2975 2978 2981 2984 2987 2991 2994 2997 3000 3003 3006 3009
2828 2828 2828 2828 2828 2829 2830 2831 2832 2832 2834 2835 2836 2837 2839 2840 2842 2843 2844 2846 2847 2847 2848 2850 2852 2854 2856 2857 2859 2860 2862 2864 2866 2867 2869 2872 2875 2878 2881 2884 2885 2887 2889 2892 2895 2897 2900 2902 2905 2907 2908 2909 2911 2913 2915 2919 2922 2926 2930 2932 2933 2933 2935 2938 2941 2944 2947 2951 2955 2958 2961 2964 2967 2971 2974 2977 2980 2983 2986 2989 2992 2995 2998 3002 3005 3008
2828 2828 2828 2829 2829 2830 2830 2831 2832 2833 2834 2835 2837 2838 2839 2840 2842 2843 2844 2846 2847 2848 2849 2850 2852 2854 2856 2857 2859 2860 2862 2863 2865 2867 2869 2871 2874 2877 2880 2883 2885 2887 2889 2892 2895 2897 2899 2901 2903 2905 2906 2908 2911 2913 2915 2918 2921 2925 2928 2932 2933 2934 2935 2937 2940 2943 2946 2949 2953 2957 2959 2962 2966 2969 2972 2975 2978 2981 2984 2987 2990 2993 2996 2999 3002 3006
2829 2829 2829 2830 2830 2830 2831 2832 2832 2833 2834 2836 2837 2838 2839 2841 2842 2843 2845 2846 2847 2848 2849 2851 2852 2854 2856 2857 2858 2860 2861 2863 2865 2867 2869 2871 2873 2876 2879 2882 2885 2887 2888 2891 2894 2897 2898 2900 2901 2903 2906 2908 2910 2912 2915 2918 2921 2924 2928 2931 2933 2934 2934 2936 2939 2942 2945 2948 2951 2955 2957 2961 2964 2967 2971 2974 2977 2980 2982 2986 2988 2992 2994 2997 3000 3003
2830 2830 2831 2831 2831 2831 2832 2832 2833 2834 2835 2836 2837 2838 2840 2841 2842 2844 2845 2847 2848 2849 2850 2852 2853 2855 2856 2858 2859 2860 2862 2863 2865 2867 2869 2871 2872 2875 2877 2881 2884 2886 2887 2890 2893 2896 2897 2899 2901 2903 2906 2908 2910 2912 2914 2917 2920 2923 2927 2929 2932 2933 2935 2936 2937 2940 2943 2947 2950 2953 2956 2959 2962 2966 2969 2972 2976 2979 2982 2985 2988 2990 2993 2996 2999 3001
2831 2831 2832 2832 2832 2832 2832 2833 2834 2835 2835 2837 2837 2838 2840 2841 2842 2844 2845 2847 2848 2849 2851 2852 2854 2855 2857 2858 2860 2862 2863 2864 2865 2867 2868 2870 2872 2874 2876 2879 2882 2885 2887 2888 2891 2894 2896 2898 2901 2903 2906 2908 2910 2912 2914 2917 2919 2922 2926 2928 2931 2933 2936 2937 2938 2940 2942 2945 2948 2952 2955 2957 2960 2964 2967 2971 2975 2978 2981 2984 2987 2990 2992 2995 2998 3001
2832 2832 2832 2833 2833 2833 2833 2834 2834 2835 2836 2837 2838 2839 2841 2842 2843 2845 2846 2847 2848 2850 2851 2852 2854 2856 2857 2859 2861 2862 2863 2864 2866 2867 2869 2870 2872 2873 2876 2878 2882 2884 2887 2888 2890 2892 2895 2897 2900 2903 2905 2908 2910 2912 2914 2916 2919 2922 2924 2927 2931 2934 2937 2938 2939 2940 2941 2943 2946 2950 2954 2957 2959 2962 2966 2970 2973 2977 2980 2983 2986 2989 2992 2994 2997 3000
2833 2833 2833 2834 2834 2834 2835 2835 2835 2836 2837 2838 2839 2840 2841 2842 2844 2845 2847 2848 2849 2851 2852 2853 2854 2856 2857 2859 2861 2863 2864 2865 2866 2868 2869 2871 2872 2873 2875 2877 2881 2884 2887 2888 2890 2892 2895 2897 2900 2903 2906 2908 2911 2912 2914 2916 2919 2922 2924 2926 2930 2933 2936 2938 2939 2940 2942 2943 2945 2949 2954 2958 2960 2962 2966 2969 2973 2976 2979 2982 2985 2988 2991 2993 2996 2999
2834 2834 2835 2835 2836 2836 2836 2836 2837 2837 2838 2839 2840 2841 2842 2843 2845 2846 2847 2849 2850 2851 2852 2853 2855 2856 2858 2859 2861 2863 2864 2866 2867 2869 2870 2872 2872 2874 2875 2877 2880 2883 2887 2889 2890 2892 2895 2897 2900 2903 2906 2909 2911 2913 2915 2917 2919 2921 2923 2925 2928 2932 2935 2938 2940 2942 2942 2943 2945 2948 2953 2958 2961 2963 2966 2969 2972 2975 2979 2982 2984 2987 2990 2992 2995 2998
2836 2836 2836 2837 2837 2837 2837 2837 2838 2838 2839 2840 2841 2842 2843 2844 2846 2847 2848 2849 2851 2852 2853 2854 2855 2857 2858 2859 2861 2862 2864 2866 2867 2869 2870 2872 2873 2874 2876 2877 2880 2883 2887 2889 2891 2893 2895 2897 2900 2902 2906 2909 2911 2913 2915 2917 2919 2921 2923 2925 2928 2932 2935 2939 2941 2942 2944 2945 2945 2947 2950 2956 2961 2964 2965 2967 2971 2974 2978 2981 2983 2986 2989 2992 2995 2997
2837 2837 2838 2838 2838 2839 2839 2839 2839 2840 2840 2841 2842 2843 2844 2845 2847 2848 2849 2850 2851 2852 2853 2855 2856 2857 2858 2859 2861 2862 2864 2865 2867 2869 2870 2872 2874 2875 2876 2878 2880 2882 2886 2889 2891 2893 2895 2897 2900 2903 2906 2908 2911 2913 2915 2917 2919 2921 2923 2926 2928 2932 2935 2938 2941 2942 2944 2945 2946 2947 2948 2952 2959 2964 2966 2967 2970 2973 2977 2980 2983 2985 2988 2991 2994 2997
2839 2839 2839 2840 2840 2840 2840 2841 2841 2841 2842 2842 2843 2844 2845 2846 2847 2849 2850 2851 2852 2853 2854 2856 2857 2858 2859 2860 2861 2862 2863 2865 2867 2868 2870 2872 2873 2875 2876 2878 2880 2882 2885 2888 2891 2893 2896 2898 2900 2903 2905 2908 2910 2912 2915 2917 2918 2921 2923 2925 2928 2932 2935 2937 2940 2941 2943 2946 2947 2948 2949 2950 2955 2960 2965 2967 2970 2973 2976 2979 2982 2985 2988 2991 2993 2996
2840 2841 2841 2841 2842 2842 2842 2842 2842 2842 2843 2843 2844 2845 2846 2847 2848 2849 2851 2852 2853 2854 2855 2857 2857 2859 2860 2861 2862 2863 2864 2865 2867 2868 2870 2872 2873 2875 2877 2878 2880 2882 2885 2887 2890 2893 2896 2898 2900 2903 2905 2908 2910 2912 2914 2916 2918 2920 2923 2926 2928 2931 2934 2937 2939 2942 2944 2946 2948 2950 2950 2951 2952 2955 2962 2966 2969 2972 2975 2978 2981 2984 2987 2990 2992 2995
2842 2842 2842 2843 2843 2843 2843 2843 2844 2844 2844 2845 2846 2847 2847 2848 2849 2850 2851 2852 2853 2855 2856 2857 2858 2859 2860 2862 2863 2864 2865 2866 2867 2869 2871 2872 2874 2876 2877 2879 2881 2882 2885 2887 2890 2893 2896 2898 2901 2903 2906 2908 2910 2912 2914 2916 2918 2921 2923 2926 2928 2931 2934 2937 2939 2942 2944 2947 2949 2950 2951 2952 2952 2954 2959 2964 2968 2972 2974 2977 2980 2983 2986 2989 2992 2994
2844 2844 2844 2844 2844 2845 2845 2845 2845 2845 2846 2846 2847 2848 2849 2849 2850 2851 2852 2853 2854 2855 2857 2857 2859 2860 2861 2862 2863 2865 2866 2867 2868 2869 2871 2873 2875 2877 2878 2880 2881 2883 2885 2887 2889 2892 2896 2898 2901 2903 2906 2908 2910 2912 2914 2916 2918 2921 2923 2926 2928 2930 2933 2936 2939 2941 2944 2947 2949 2950 2952 2953 2954 2956 2958 2962 2967 2972 2974 2976 2979 2982 2985 2988 2990 2993